Weather History for Wroclaw Ii, Poland

Change the Weather History Date:

Wednesday, August 7, 2013

  Actual Average Record
Temperature  
Mean Temperature 76 °F -  
Max Temperature 87 °F 72 °F - ()
Min Temperature 64 °F 52 °F - ()
Cooling Degree Days 10    
Growing Degree Days 26 (Base 50)    
Moisture  
Dew Point 64 °F    
Average Humidity 64    
Maximum Humidity 94    
Minimum Humidity 24    
Precipitation  
Precipitation 0.00 in 0.09 in - ()
Sea Level Pressure  
Sea Level Pressure 29.95 in    
Wind  
Wind Speed 6 mph ()    
Max Wind Speed 23 mph    
Max Gust Speed 33 mph    
Visibility 8.0 miles    
Events Rain , Thunderstorm    
T = Trace of Precipitation, MM = Missing Value Source: Averaged Metar Reports

Daily Weather History Graph

Daily Weather History Graph

Search for Another Location

Airport:

Trip Planner

Search our weather history database for the weather conditions in past years. The results will help you decide how hot, cold, wet, or windy it might be!

Date:

Astronomy

Aug. 07, 2013 Rise Set
Actual Time 5:26 AM CEST 8:28 PM CEST
Civil Twilight 4:47 AM CEST 9:07 PM CEST
Nautical Twilight 3:57 AM CEST 9:57 PM CEST
Astronomical Twilight 2:52 AM CEST 11:00 PM CEST
Moon 6:09 AM CEST (8/7) 8:11 PM CEST (8/7)
Length of Visible Light 16h 19m
Length of Day
15h 01m
New Moon, 0% of the Moon is Illuminated
Aug 7
New Moon
Aug 14
First Quarter
Aug 21
Full
Aug 28
Last Quarter
Sep 5
New

Hourly Weather History & Observations

Time (CEST) Temp. Heat Index Dew Point Humidity Pressure Visibility Wind Dir Wind Speed Gust Speed Precip Events Conditions
12:00 AM 73.4 °F - 62.6 °F 69% 29.89 in - Variable 2.3 mph - N/A   Clear
12:30 AM 71.6 °F - 64.4 °F 78% 29.89 in - Variable 1.2 mph - N/A   Clear
1:00 AM 71.6 °F - 64.4 °F 78% 29.89 in - Variable 2.3 mph - N/A   Clear
1:30 AM 75.2 °F - 66.2 °F 73% 29.95 in 6.2 mi West 21.9 mph - N/A   Partly Cloudy
2:00 AM 71 °F - 65 °F 75% 29.95 in 9 mi West 15.7 mph - - Rain Heavy Rain Showers
2:00 AM 71.6 °F - 64.4 °F 78% 29.98 in 6.2 mi WNW 23.0 mph - N/A Rain , Thunderstorm Light Rain Showers
2:30 AM 69.8 °F - 64.4 °F 83% 29.98 in 6.2 mi WNW 21.9 mph 33.4 mph N/A Rain , Thunderstorm Light Thunderstorms and Rain
3:00 AM 69.8 °F - 64.4 °F 83% 29.98 in 6.2 mi NNW 16.1 mph - N/A Thunderstorm Thunderstorm
3:30 AM 68.0 °F - 64.4 °F 88% 29.98 in 6.2 mi NW 12.7 mph - N/A   Partly Cloudy
4:00 AM 68.0 °F - 64.4 °F 88% 30.01 in 6.2 mi WNW 8.1 mph - N/A   Partly Cloudy
4:30 AM 68.0 °F - 66.2 °F 94% 30.01 in 6.2 mi SW 5.8 mph - N/A Rain Light Rain Showers
5:00 AM 66 °F - 65 °F 94% 29.95 in 19 mi SE 2.2 mph - - Rain Light Rain Showers
5:00 AM 68.0 °F - 66.2 °F 94% 29.95 in 6.2 mi Variable 2.3 mph - N/A   Partly Cloudy
5:30 AM 66.2 °F - 64.4 °F 94% 29.92 in - East 5.8 mph - N/A   Clear
6:00 AM 66.2 °F - 64.4 °F 94% 29.89 in - ESE 6.9 mph - N/A   Clear
6:30 AM 68.0 °F - 66.2 °F 94% 29.92 in - SW 5.8 mph - N/A   Clear
7:00 AM 68.0 °F - 66.2 °F 94% 29.95 in - WSW 4.6 mph - N/A   Clear
7:30 AM 69.8 °F - 66.2 °F 88% 29.98 in - WSW 3.5 mph - N/A   Clear
8:00 AM 69 °F - 66 °F 89% 29.99 in 19 mi West 6.7 mph - -   Partly Cloudy
8:00 AM 71.6 °F - 68.0 °F 88% 30.01 in 6.2 mi West 6.9 mph - N/A   Partly Cloudy
8:30 AM 73.4 °F - 66.2 °F 78% 29.98 in 6.2 mi WSW 4.6 mph - N/A   Partly Cloudy
9:00 AM 75.2 °F - 64.4 °F 69% 29.98 in - WSW 4.6 mph - N/A   Clear
9:30 AM 77.0 °F - 64.4 °F 65% 29.98 in - Variable 2.3 mph - N/A   Clear
10:00 AM 78.8 °F - 66.2 °F 65% 29.98 in - SE 5.8 mph - N/A   Clear
10:30 AM 80.6 °F 82.7 °F 66.2 °F 61% 29.98 in - SE 5.8 mph - N/A   Clear
11:00 AM 79 °F - 65 °F 55% 29.95 in 25 mi South 4.5 mph - -   Partly Cloudy
11:00 AM 80.6 °F 82.3 °F 64.4 °F 58% 29.98 in - Variable 3.5 mph - N/A   Clear
11:30 AM 82.4 °F 83.9 °F 64.4 °F 54% 29.98 in 6.2 mi South 3.5 mph - N/A   Partly Cloudy
12:00 PM 82.4 °F 83.4 °F 62.6 °F 51% 29.98 in 6.2 mi SW 5.8 mph - N/A   Partly Cloudy
12:30 PM 84.2 °F 85.6 °F 64.4 °F 51% 29.95 in 6.2 mi North 3.5 mph - N/A   Partly Cloudy
1:00 PM 84.2 °F 85.0 °F 62.6 °F 48% 29.98 in - West 5.8 mph - N/A   Clear
1:30 PM 86.0 °F 86.6 °F 62.6 °F 45% 29.98 in - North 4.6 mph - N/A   Clear
2:00 PM 84 °F - 63 °F 39% 29.94 in 31 mi West 4.5 mph - -   Scattered Clouds
2:00 PM 86.0 °F 86.1 °F 60.8 °F 43% 29.98 in - NW 5.8 mph - N/A   Clear
2:30 PM 86.0 °F 84.9 °F 57.2 °F 37% 29.98 in - Variable 3.5 mph - N/A   Clear
3:00 PM 86.0 °F 85.4 °F 59.0 °F 40% 29.98 in - WNW 5.8 mph - N/A   Clear
3:30 PM 87.8 °F 87.6 °F 60.8 °F 40% 29.95 in - SSW 2.3 mph - N/A   Clear
4:00 PM 87.8 °F 87.1 °F 59.0 °F 38% 29.95 in - Variable 1.2 mph - N/A   Clear
4:30 PM 89.6 °F 90.1 °F 62.6 °F 40% 29.95 in - Variable 1.2 mph - N/A   Clear
5:00 PM 87 °F - 55 °F 24% 29.91 in 31 mi NW 2.2 mph - -   Scattered Clouds
5:00 PM 87.8 °F 87.6 °F 60.8 °F 40% 29.95 in - NNE 4.6 mph - N/A   Clear
5:30 PM 89.6 °F 88.9 °F 59.0 °F 36% 29.95 in - Variable 2.3 mph - N/A   Clear
6:00 PM 89.6 °F 91.1 °F 64.4 °F 43% 29.95 in - ESE 3.5 mph - N/A   Clear
6:30 PM 87.8 °F 90.4 °F 66.2 °F 49% 29.92 in - Variable 1.2 mph - N/A   Clear
7:00 PM 84.2 °F 84.4 °F 60.8 °F 45% 29.92 in - NE 3.5 mph - N/A   Clear
7:30 PM 84.2 °F 85.0 °F 62.6 °F 48% 29.92 in - NE 5.8 mph - N/A   Clear
8:00 PM 84 °F - 62 °F 37% 29.90 in 31 mi ENE 6.7 mph - -   Partly Cloudy
8:00 PM 80.6 °F 82.7 °F 66.2 °F 61% 29.92 in - East 3.5 mph - N/A   Clear
8:30 PM 80.6 °F 81.8 °F 62.6 °F 54% 29.92 in - Variable 1.2 mph - N/A   Clear
9:00 PM 78.8 °F - 64.4 °F 61% 29.92 in - Variable 1.2 mph - N/A   Clear
9:30 PM 77.0 °F - 64.4 °F 65% 29.92 in - Variable 1.2 mph - N/A   Clear
10:00 PM 77.0 °F - 64.4 °F 65% 29.92 in - East 2.3 mph - N/A   Clear
10:30 PM 75.2 °F - 64.4 °F 69% 29.92 in - SE 3.5 mph - N/A   Clear
11:00 PM 75 °F - 64 °F 60% 29.91 in 31 mi SSE 2.2 mph - -   Clear
11:00 PM 75.2 °F - 64.4 °F 69% 29.92 in - Variable 1.2 mph - N/A   Clear
11:30 PM 73.4 °F - 64.4 °F 73% 29.92 in - South 3.5 mph - N/A   Clear